MDT,Max TemperatureF,Mean TemperatureF,Min TemperatureF,Max Dew PointF,MeanDew PointF,Min DewpointF,Max Humidity, Mean Humidity, Min Humidity, Max Sea Level PressureIn, Mean Sea Level PressureIn, Min Sea Level PressureIn, Max VisibilityMiles, Mean VisibilityMiles, Min VisibilityMiles, Max Wind SpeedMPH, Mean Wind SpeedMPH, Max Gust SpeedMPH,PrecipitationIn, CloudCover, Events, WindDirDegrees
2013-4-1,49,36,23,27,23,16,92,64,36,30.32,30.26,30.20,10,10,10,14,5,17,0.00,5,,87
2013-4-2,57,36,15,24,19,13,88,56,24,30.24,30.19,30.13,10,10,10,14,5,21,0.00,0,,104
2013-4-3,75,52,29,36,28,22,78,47,16,30.13,30.00,29.88,10,10,10,32,13,41,0.01,2,,245
2013-4-4,55,39,23,27,19,12,81,50,19,30.23,30.16,30.08,10,10,10,20,11,24,0.00,1,,73
2013-4-5,69,50,30,36,30,24,78,53,27,30.06,29.74,29.54,10,10,10,26,13,35,T,1,,69
2013-4-6,70,53,36,46,36,28,93,58,22,29.81,29.71,29.63,10,10,10,30,15,39,0.03,3,Rain,324
2013-4-7,58,45,31,37,34,28,100,72,43,29.81,29.72,29.62,10,6,0,16,8,20,T,4,Fog-Rain,75
2013-4-8,44,31,17,41,32,17,100,91,82,30.19,29.88,29.59,10,2,0,33,17,38,0.27,8,Fog-Rain-Snow,38
2013-4-9,22,18,13,20,14,10,92,82,71,30.43,30.30,30.13,10,2,0,32,22,39,0.33,8,Fog-Snow,351
2013-4-10,28,24,20,25,20,17,92,87,81,30.35,30.19,29.96,10,4,0,23,13,26,0.31,8,Fog-Snow,352
2013-4-11,34,29,23,27,24,19,92,84,75,30.01,29.87,29.78,10,8,2,18,10,21,0.01,8,Snow,351
2013-4-12,39,34,28,34,29,25,96,86,75,30.01,29.95,29.90,10,10,10,15,6,18,T,7,Rain,293
2013-4-13,38,31,23,33,30,22,100,88,76,29.98,29.68,29.46,10,10,7,26,14,35,0.03,4,,105
2013-4-14,41,34,26,34,31,19,100,86,72,29.78,29.49,29.37,10,7,1,37,19,45,0.10,7,Rain-Snow,331
2013-4-15,40,33,25,25,22,19,85,69,52,30.16,29.94,29.73,10,10,9,32,17,39,T,6,Snow,312
2013-4-16,37,30,22,30,26,20,100,77,54,30.34,30.24,30.17,10,5,1,16,7,20,0.21,7,Snow,79
2013-4-17,33,30,26,28,26,24,100,86,72,30.34,30.23,30.16,10,4,0,17,12,22,0.14,8,Fog-Snow,31
2013-4-18,42,33,24,27,22,18,85,62,38,30.21,30.13,30.05,10,10,3,30,16,37,T,4,Snow,329
2013-4-19,47,37,26,23,21,18,81,57,33,30.09,30.04,29.98,10,10,10,15,7,22,T,5,,12
2013-4-20,51,40,28,37,28,19,100,78,56,30.08,30.00,29.93,10,8,1,23,14,30,0.01,7,Snow,101
2013-4-21,54,43,31,40,35,28,100,73,46,30.19,30.05,29.91,10,9,2,26,12,32,0.17,6,Rain-Snow,343
2013-4-22,32,26,20,32,26,20,100,82,63,30.47,30.27,30.13,10,3,0,3,11,5,0.34,8,Fog-Snow,42
2013-4-23,40,27,13,25,19,11,100,74,48,30.46,30.31,30.15,10,10,6,16,9,29,0.00,0,,269
2013-4-24,49,37,25,36,26,21,85,60,34,30.17,30.12,30.07,10,9,2,43,15,49,T,3,Rain-Snow,304
2013-4-25,72,49,25,31,26,18,92,53,13,30.15,29.93,29.78,10,10,10,20,8,24,0.00,1,,259
2013-4-26,76,54,32,37,30,27,78,47,16,30.09,30.05,29.92,10,10,10,16,7,20,0.00,0,,249
2013-4-27,83,65,47,38,32,27,61,38,14,30.05,29.89,29.74,10,10,10,22,6,31,0.00,0,,264
2013-4-28,73,58,43,44,37,32,76,49,22,29.90,29.79,29.68,10,10,10,32,12,38,T,2,Rain,334
2013-4-29,78,58,37,41,36,31,85,52,19,29.86,29.56,29.27,10,10,10,44,13,52,0.00,0,,167
2013-4-30,60,49,37,40,28,21,76,50,23,30.16,29.84,29.56,10,10,10,32,17,41,0.00,4,,322